Location: Fort Worth, Tx
(32.7431°N, 97.3695°W)
Time: 20:05:17
(UTC-04:00)

Vanguard 1 Rocket - Pass Details

Date: 18 September 2024
Orbit: 650 x 4218 km, 34.3° (Epoch: 11 October)

Event Time Altitude Azimuth Distance (km) Brightness Sun altitude
Exits shadow 02:48:34 18° 94° (E) 4,395 10.8 -55.1°
Drops below altitude 10° 02:53:30 10° 81° (E) 5,624 11.5 -54.9°
Sets 03:00:06 0° 72° (ENE) 7,281 12.3 -54.5°
